• In Lithuania
  • List of Countries
  • For 7 days
  • Water Temperature
  • Satellite Maps
  • Weather Map
  • Weather Widgets
  • user-avatar
    Login

    Hourly Weather Nowogród Bobrzański

    Today, 18 February, Sunday

    Time Temperature Precipitation Wind Pressure Humidity
    00:00 0°C° 0 mm 1 mps 759 mmHg 96%
    01:00 0°C° 0 mm 1 mps 760 mmHg 96%
    02:00 0°C° 0 mm 1 mps 760 mmHg 96%
    03:00 0°C° 0 mm 1 mps 760 mmHg 96%
    04:00 -1°C° 0 mm 1 mps 760 mmHg 96%
    05:00 -1°C° 0 mm 1 mps 760 mmHg 96%
    06:00 -1°C° 0 mm 1 mps 761 mmHg 96%
    07:00 -1°C° 0 mm 1 mps 761 mmHg 96%
    08:00 0°C° 0 mm 1 mps 761 mmHg 89%
    09:00 0°C° 0 mm 0 mps 762 mmHg 82%
    10:00 +2°C° 0 mm 0 mps 762 mmHg 76%
    11:00 +2°C° 0 mm 0 mps 762 mmHg 71%
    12:00 +3°C° 0 mm 0 mps 762 mmHg 67%
    13:00 +4°C° 0 mm 0 mps 762 mmHg 63%
    14:00 +4°C° 0 mm 0 mps 762 mmHg 64%
    15:00 +3°C° 0 mm 0 mps 761 mmHg 65%
    16:00 +3°C° 0 mm 0 mps 761 mmHg 66%
    17:00 +2°C° 0 mm 0 mps 761 mmHg 71%
    18:00 +1°C° 0 mm 0 mps 761 mmHg 76%
    19:00 0°C° 0 mm 0 mps 761 mmHg 81%
    20:00 0°C° 0 mm 1 mps 761 mmHg 82%
    21:00 0°C° 0 mm 1 mps 761 mmHg 83%
    22:00 0°C° 0 mm 1 mps 761 mmHg 84%
    23:00 0°C° 0 mm 1 mps 761 mmHg 84%

    Tomorrow, 19 February, Monday

    Time Temperature Precipitation Wind Pressure Humidity
    00:00 0°C° 0 mm 1 mps 760 mmHg 84%
    01:00 0°C° 0 mm 1 mps 760 mmHg 84%
    02:00 0°C° 0 mm 1 mps 760 mmHg 84%
    03:00 0°C° 0 mm 1 mps 759 mmHg 84%
    04:00 0°C° 0 mm 1 mps 759 mmHg 84%
    05:00 0°C° 0 mm 1 mps 759 mmHg 83%
    06:00 0°C° 0 mm 1 mps 758 mmHg 83%
    07:00 0°C° 0 mm 1 mps 758 mmHg 82%
    08:00 +1°C° 0 mm 1 mps 758 mmHg 76%
    09:00 +1°C° 0 mm 2 mps 758 mmHg 70%
    10:00 +2°C° 0 mm 2 mps 758 mmHg 64%
    11:00 +4°C° 0 mm 1 mps 757 mmHg 59%
    12:00 +5°C° 0 mm 1 mps 757 mmHg 54%
    13:00 +6°C° 0 mm 1 mps 757 mmHg 49%
    14:00 +6°C° 0 mm 1 mps 757 mmHg 52%
    15:00 +5°C° 0 mm 1 mps 756 mmHg 54%
    16:00 +5°C° 0 mm 1 mps 756 mmHg 56%
    17:00 +4°C° 0 mm 1 mps 756 mmHg 60%
    18:00 +3°C° 0 mm 1 mps 756 mmHg 63%
    19:00 +1°C° 0 mm 2 mps 756 mmHg 67%
    20:00 -1°C° 0 mm 2 mps 756 mmHg 68%
    21:00 +1°C° 0 mm 1 mps 756 mmHg 69%
    22:00 +1°C° 0 mm 1 mps 755 mmHg 69%
    23:00 +1°C° 0 mm 1 mps 755 mmHg 70%

    Day after tomorrow, 20 February, Tuesday

    Time Temperature Precipitation Wind Pressure Humidity
    00:00 +1°C° 0 mm 1 mps 755 mmHg 71%
    01:00 0°C° 0 mm 1 mps 755 mmHg 72%
    02:00 0°C° 0 mm 1 mps 755 mmHg 73%
    03:00 0°C° 0 mm 1 mps 755 mmHg 74%
    04:00 0°C° 0 mm 1 mps 754 mmHg 75%
    05:00 0°C° 0 mm 1 mps 754 mmHg 76%
    06:00 -2°C° 0 mm 2 mps 754 mmHg 77%
    07:00 -3°C° 0 mm 2 mps 754 mmHg 78%
    08:00 -2°C° 0 mm 2 mps 754 mmHg 73%
    09:00 -1°C° 0 mm 2 mps 755 mmHg 68%
    10:00 +1°C° 0 mm 2 mps 755 mmHg 63%
    11:00 +2°C° 0 mm 2 mps 755 mmHg 59%
    12:00 +3°C° 0 mm 2 mps 754 mmHg 55%
    13:00 +3°C° 0 mm 3 mps 754 mmHg 51%
    14:00 +3°C° 0 mm 3 mps 754 mmHg 52%
    15:00 +3°C° 0 mm 3 mps 754 mmHg 54%
    16:00 +2°C° 0 mm 3 mps 754 mmHg 56%
    17:00 +2°C° 0 mm 2 mps 754 mmHg 62%
    18:00 +1°C° 0 mm 2 mps 754 mmHg 68%
    19:00 -2°C° 0 mm 2 mps 755 mmHg 74%
    20:00 -2°C° 0 mm 2 mps 755 mmHg 75%
    21:00 -3°C° 0 mm 2 mps 755 mmHg 76%
    22:00 -3°C° 0 mm 2 mps 755 mmHg 77%
    23:00 -3°C° 0 mm 2 mps 756 mmHg 77%

    21 February, Wednesday

    Time Temperature Precipitation Wind Pressure Humidity
    00:00 -3°C° 0 mm 2 mps 756 mmHg 78%
    01:00 -3°C° 0 mm 2 mps 756 mmHg 78%
    02:00 -4°C° 0 mm 2 mps 756 mmHg 78%
    03:00 -4°C° 0 mm 2 mps 756 mmHg 78%
    04:00 -4°C° 0 mm 2 mps 756 mmHg 78%
    05:00 -4°C° 0 mm 2 mps 756 mmHg 78%
    06:00 -4°C° 0 mm 2 mps 756 mmHg 78%
    07:00 -4°C° 0 mm 2 mps 756 mmHg 78%
    08:00 -3°C° 0 mm 2 mps 756 mmHg 72%
    09:00 -2°C° 0 mm 3 mps 757 mmHg 66%
    10:00 -1°C° 0 mm 3 mps 757 mmHg 60%
    11:00 0°C° 0 mm 3 mps 756 mmHg 57%
    12:00 +1°C° 0 mm 3 mps 756 mmHg 53%
    13:00 +2°C° 0 mm 3 mps 756 mmHg 49%
    14:00 +2°C° 0 mm 3 mps 756 mmHg 51%
    15:00 +1°C° 0 mm 3 mps 756 mmHg 54%
    16:00 0°C° 0 mm 4 mps 756 mmHg 56%
    17:00 0°C° 0 mm 3 mps 756 mmHg 63%
    18:00 -1°C° 0 mm 3 mps 756 mmHg 70%
    19:00 -2°C° 0 mm 3 mps 756 mmHg 76%
    20:00 -4°C° 0 mm 3 mps 756 mmHg 77%
    21:00 -4°C° 0 mm 3 mps 757 mmHg 77%
    22:00 -4°C° 0 mm 3 mps 757 mmHg 78%
    23:00 -4°C° 0 mm 3 mps 757 mmHg 77%

    22 February, Thursday

    Time Temperature Precipitation Wind Pressure Humidity
    00:00 -5°C° 0 mm 3 mps 757 mmHg 76%
    01:00 -5°C° 0 mm 3 mps 757 mmHg 76%
    02:00 -5°C° 0 mm 3 mps 756 mmHg 75%
    03:00 -5°C° 0 mm 4 mps 756 mmHg 73%
    04:00 -5°C° 0 mm 4 mps 756 mmHg 72%
    05:00 -5°C° 0 mm 4 mps 756 mmHg 72%
    06:00 -5°C° 0 mm 4 mps 756 mmHg 72%
    07:00 -5°C° 0 mm 4 mps 756 mmHg 71%
    08:00 -5°C° 0 mm 4 mps 756 mmHg 68%
    09:00 -4°C° 0 mm 4 mps 755 mmHg 65%
    10:00 -3°C° 0 mm 4 mps 755 mmHg 62%
    11:00 -2°C° 0 mm 4 mps 755 mmHg 59%
    12:00 -1°C° 0 mm 5 mps 755 mmHg 56%
    13:00 -1°C° 0 mm 5 mps 754 mmHg 53%
    14:00 -1°C° 0 mm 5 mps 754 mmHg 55%
    15:00 -1°C° 0 mm 5 mps 753 mmHg 56%
    16:00 -1°C° 0 mm 4 mps 753 mmHg 58%
    17:00 -2°C° 0 mm 4 mps 753 mmHg 61%
    18:00 -3°C° 0 mm 4 mps 753 mmHg 64%
    19:00 -3°C° 0 mm 4 mps 752 mmHg 67%
    20:00 -4°C° 0 mm 4 mps 752 mmHg 67%
    21:00 -4°C° 0 mm 4 mps 752 mmHg 68%
    22:00 -4°C° 0 mm 4 mps 752 mmHg 69%
    23:00 -4°C° 0.1 mm 4 mps 752 mmHg 70%

    23 February, Friday

    Time Temperature Precipitation Wind Pressure Humidity
    00:00 -4°C° 0.1 mm 4 mps 751 mmHg 70%
    01:00 -4°C° 0.1 mm 4 mps 751 mmHg 71%
    02:00 -5°C° 0 mm 4 mps 750 mmHg 71%
    03:00 -5°C° 0 mm 4 mps 750 mmHg 72%
    04:00 -5°C° 0 mm 4 mps 750 mmHg 72%
    05:00 -5°C° 0.1 mm 4 mps 750 mmHg 72%
    06:00 -5°C° 0.1 mm 4 mps 749 mmHg 72%
    07:00 -5°C° 0.1 mm 3 mps 749 mmHg 72%
    08:00 -5°C° 0.1 mm 3 mps 749 mmHg 70%
    09:00 -5°C° 0.1 mm 3 mps 749 mmHg 67%
    10:00 -4°C° 0.1 mm 3 mps 749 mmHg 64%
    11:00 -4°C° 0 mm 3 mps 749 mmHg 61%
    12:00 -3°C° 0 mm 4 mps 748 mmHg 57%
    13:00 -3°C° 0 mm 4 mps 748 mmHg 54%
    14:00 -2°C° 0 mm 3 mps 748 mmHg 54%
    15:00 -2°C° 0 mm 3 mps 748 mmHg 54%
    16:00 -2°C° 0 mm 3 mps 747 mmHg 54%
    17:00 -2°C° 0 mm 3 mps 747 mmHg 56%
    18:00 -4°C° 0 mm 3 mps 747 mmHg 59%
    19:00 -5°C° 0 mm 3 mps 748 mmHg 62%
    20:00 -5°C° 0 mm 3 mps 748 mmHg 62%
    21:00 -5°C° 0 mm 3 mps 748 mmHg 62%
    22:00 -5°C° 0 mm 3 mps 748 mmHg 63%
    23:00 -6°C° 0 mm 3 mps 748 mmHg 63%
    Show more